Plum, TX

9:00 PM CST on December 04, 2016 (GMT -0600)
La Grange

Weather History for K3T5 - October, 2013

Change the Weather History Date:

Saturday, October 5, 2013

  Actual Average (KAUS) Record (KAUS)
Temperature  
Mean Temperature 78 °F 72 °F  
Max Temperature 90 °F 85 °F 96 °F (2000)
Min Temperature 66 °F 59 °F 43 °F (2010)
Degree Days  
Heating Degree Days 0 1  
Month to date heating degree days 4  
Since 1 July heating degree days 6  
Cooling Degree Days 13 8  
Month to date cooling degree days 42  
Year to date cooling degree days 2570  
Growing Degree Days 28 (Base 50)    
Moisture  
Dew Point 66 °F    
Average Humidity 71    
Maximum Humidity 93    
Minimum Humidity 42    
Precipitation  
Precipitation 0.00 in 0.12 in 1.00 in (1960)
Month to date precipitation 0.51  
Year to date precipitation 25.76  
Snow  
Snow 0.00 in - - ()
Month to date snowfall  
Since 1 July snowfall  
Since 1 September snowfall  
Snow Depth -    
Sea Level Pressure  
Sea Level Pressure 29.92 in    
Wind  
Wind Speed 3 mph (NNW)    
Max Wind Speed 20 mph    
Max Gust Speed 28 mph    
Visibility 8 miles    
Events Fog , Rain    
T = Trace of Precipitation, MM = Missing Value Source: NWS Daily Summary

Daily Weather History Graph

Daily Weather History Graph

Search for Another Location

Airport or City:

Trip Planner

Search our weather history database for the weather conditions in past years. The results will help you decide how hot, cold, wet, or windy it might be!

Date:

Astronomy

Oct. 05, 2013 Rise Set
Actual Time 7:23 AM CDT 7:08 PM CDT
Civil Twilight 6:59 AM CDT 7:31 PM CDT
Nautical Twilight 6:32 AM CDT 7:59 PM CDT
Astronomical Twilight 6:04 AM CDT 8:27 PM CDT
Moon 7:58 AM CDT 7:35 PM CDT
Length of Visible Light 12h 32m
Length of Day
11h 44m
New Moon, 1% of the Moon is Illuminated
Oct 5
New Moon
Oct 11
First Quarter
Oct 18
Full
Oct 26
Last Quarter
Nov 3
New

Hourly Weather History & Observations

Time (CDT) Temp. Heat Index Dew Point Humidity Pressure Visibility Wind Dir Wind Speed Gust Speed Precip Events Conditions
12:15 AM 75.6 °F - 72.5 °F 90% 29.90 in 10.0 mi SSE 3.5 mph - N/A   Clear
12:35 AM 75.2 °F - 72.1 °F 90% 29.90 in 10.0 mi Calm Calm - N/A   Clear
12:55 AM 74.8 °F - 72.1 °F 91% 29.90 in 10.0 mi Calm Calm - N/A   Clear
1:15 AM 74.5 °F - 71.8 °F 91% 29.89 in 10.0 mi Calm Calm - N/A   Clear
1:35 AM 73.6 °F - 71.2 °F 92% 29.89 in 10.0 mi Calm Calm - N/A   Clear
1:55 AM 73.9 °F - 71.6 °F 92% 29.89 in 10.0 mi Calm Calm - N/A   Clear
2:15 AM 73.2 °F - 71.1 °F 93% 29.89 in 7.0 mi SSE 3.5 mph - N/A   Clear
2:35 AM 73.6 °F - 71.6 °F 93% 29.89 in 7.0 mi Calm Calm - N/A   Clear
2:55 AM 73.4 °F - 71.2 °F 93% 29.88 in 5.0 mi Calm Calm - N/A   Clear
3:15 AM 72.5 °F - 70.5 °F 93% 29.88 in 5.0 mi Calm Calm - N/A   Clear
3:35 AM 72.5 °F - 70.3 °F 93% 29.88 in 5.0 mi Calm Calm - N/A   Clear
3:55 AM 72.5 °F - 70.2 °F 92% 29.88 in 5.0 mi Calm Calm - N/A   Clear
4:15 AM 72.5 °F - 70.5 °F 93% 29.88 in 5.0 mi Calm Calm - N/A   Clear
4:35 AM 72.5 °F - 70.5 °F 93% 29.88 in 4.0 mi Calm Calm - N/A   Scattered Clouds
4:55 AM 71.8 °F - 69.8 °F 93% 29.89 in 7.0 mi Calm Calm - N/A   Mostly Cloudy
5:15 AM 73.0 °F - 70.7 °F 92% 29.89 in 2.0 mi Calm Calm - N/A   Overcast
5:35 AM 73.6 °F - 71.2 °F 92% 29.89 in 0.2 mi Calm Calm - N/A Fog Fog
5:55 AM 73.6 °F - 71.2 °F 92% 29.89 in 0.2 mi Calm Calm - N/A Fog Fog
6:15 AM 73.4 °F - 71.1 °F 92% 29.90 in 0.2 mi Calm Calm - N/A Fog Fog
6:35 AM 73.4 °F - 70.9 °F 92% 29.91 in 0.2 mi Calm Calm - N/A Fog Fog
6:55 AM 73.2 °F - 70.7 °F 92% 29.91 in 0.5 mi Calm Calm - N/A Fog Fog
7:15 AM 73.6 °F - 71.1 °F 92% 29.91 in 0.2 mi Calm Calm - N/A Fog Fog
7:35 AM 73.6 °F - 70.9 °F 91% 29.91 in 0.2 mi Calm Calm - N/A Rain Light Rain
7:55 AM 73.6 °F - 70.9 °F 91% 29.91 in 0.2 mi Calm Calm - N/A   Light Drizzle
8:15 AM 73.9 °F - 71.2 °F 91% 29.92 in 0.2 mi Calm Calm - N/A Fog Fog
8:35 AM 74.3 °F - 71.2 °F 90% 29.92 in 0.2 mi Calm Calm - N/A Fog Fog
8:55 AM 75.0 °F - 71.8 °F 90% 29.92 in - Calm Calm - N/A   Unknown
9:15 AM 75.9 °F - 72.5 °F 89% 29.93 in 1.0 mi Calm Calm - N/A   Overcast
9:35 AM 76.3 °F - 72.5 °F 88% 29.93 in 2.5 mi South 3.5 mph - N/A   Overcast
9:55 AM 76.6 °F - 72.7 °F 87% 29.94 in 7.0 mi Calm Calm - N/A   Overcast
10:15 AM 76.8 °F - 72.5 °F 86% 29.95 in 10.0 mi Calm Calm - N/A   Overcast
10:35 AM 77.5 °F - 72.9 °F 85% 29.96 in 10.0 mi NE 3.5 mph - N/A   Mostly Cloudy
10:55 AM 78.3 °F - 71.6 °F 80% 29.96 in 10.0 mi Calm Calm - N/A   Scattered Clouds
11:15 AM 81.7 °F 84.9 °F 68.7 °F 65% 29.96 in 10.0 mi WNW 5.8 mph - N/A   Mostly Cloudy
11:35 AM 81.7 °F 83.5 °F 65.1 °F 57% 29.96 in 10.0 mi Calm Calm - N/A   Scattered Clouds
11:55 AM 83.8 °F 84.3 °F 61.9 °F 47% 29.96 in 10.0 mi Calm Calm - N/A   Clear
12:15 PM 84.0 °F 85.6 °F 64.4 °F 52% 29.96 in 10.0 mi NW 5.8 mph - N/A   Scattered Clouds
12:35 PM 84.6 °F 85.2 °F 62.2 °F 47% 29.95 in 10.0 mi NNW 5.8 mph - N/A   Clear
12:55 PM 85.8 °F 86.1 °F 61.3 °F 44% 29.95 in 10.0 mi NW 3.5 mph - N/A   Clear
1:15 PM 86.5 °F 86.8 °F 61.3 °F 43% 29.93 in 10.0 mi NNE 5.8 mph - N/A   Clear
1:35 PM 86.5 °F 86.8 °F 61.7 °F 43% 29.93 in 10.0 mi NNE 4.6 mph - N/A   Clear
1:55 PM 86.4 °F 86.3 °F 60.8 °F 42% 29.92 in 10.0 mi North 5.8 mph - N/A   Clear
2:15 PM 87.1 °F 87.8 °F 62.6 °F 44% 29.91 in 10.0 mi Calm Calm - N/A   Scattered Clouds
2:35 PM 88.2 °F 89.0 °F 63.0 °F 43% 29.91 in 10.0 mi Calm Calm - N/A   Scattered Clouds
2:55 PM 88.3 °F 88.9 °F 62.6 °F 42% 29.90 in 10.0 mi Calm Calm - N/A   Scattered Clouds
3:15 PM 88.0 °F 89.3 °F 64.4 °F 45% 29.89 in 10.0 mi Calm Calm - N/A   Clear
3:35 PM 89.1 °F 90.6 °F 64.4 °F 44% 29.88 in 10.0 mi Calm Calm - N/A   Clear
3:55 PM 89.6 °F 92.2 °F 66.0 °F 46% 29.88 in 10.0 mi West 3.5 mph - N/A   Clear
4:15 PM 89.8 °F 92.1 °F 65.8 °F 45% 29.87 in 10.0 mi WNW 4.6 mph - N/A   Clear
4:35 PM 89.6 °F 91.8 °F 65.8 °F 45% 29.87 in 10.0 mi WNW 3.5 mph - N/A   Clear
4:55 PM 90.0 °F 92.4 °F 66.2 °F 45% 29.86 in 10.0 mi WNW 4.6 mph - N/A   Clear
5:15 PM 89.8 °F 92.5 °F 66.2 °F 46% 29.86 in 10.0 mi WNW 4.6 mph - N/A   Clear
5:35 PM 89.8 °F 93.3 °F 67.5 °F 48% 29.86 in 10.0 mi WNW 3.5 mph - N/A   Clear
5:55 PM 88.2 °F 91.7 °F 67.8 °F 51% 29.86 in 10.0 mi NNW 12.7 mph 19.6 mph N/A   Clear
6:15 PM 83.5 °F 86.0 °F 66.6 °F 57% 29.88 in 10.0 mi North 12.7 mph 18.4 mph N/A   Clear
6:35 PM 81.9 °F 84.1 °F 66.4 °F 59% 29.89 in 10.0 mi North 9.2 mph 16.1 mph N/A   Clear
6:55 PM 80.4 °F 82.3 °F 65.5 °F 60% 29.90 in 10.0 mi North 13.8 mph 18.4 mph N/A   Clear
7:15 PM 78.6 °F - 63.7 °F 60% 29.92 in 10.0 mi North 13.8 mph 20.7 mph N/A   Clear
7:35 PM 76.6 °F - 61.7 °F 60% 29.93 in 10.0 mi North 18.4 mph 25.3 mph N/A   Clear
7:55 PM 75.2 °F - 61.0 °F 61% 29.95 in 10.0 mi North 15.0 mph 21.9 mph N/A   Clear
8:15 PM 73.6 °F - 58.5 °F 59% 29.96 in 10.0 mi North 15.0 mph 25.3 mph N/A   Clear
8:35 PM 72.0 °F - 57.2 °F 60% 29.97 in 10.0 mi North 19.6 mph 27.6 mph N/A   Clear
8:55 PM 70.9 °F - 57.0 °F 61% 29.99 in 10.0 mi North 11.5 mph 20.7 mph N/A   Clear
9:15 PM 70.0 °F - 56.5 °F 62% 29.99 in 10.0 mi North 11.5 mph 21.9 mph N/A   Scattered Clouds
9:35 PM 69.4 °F - 55.4 °F 61% 30.01 in 10.0 mi North 15.0 mph 23.0 mph N/A   Mostly Cloudy
9:55 PM 68.9 °F - 54.5 °F 60% 30.01 in 10.0 mi North 13.8 mph 21.9 mph N/A   Overcast
10:15 PM 68.2 °F - 54.9 °F 62% 30.01 in 10.0 mi North 12.7 mph 19.6 mph N/A   Overcast
10:35 PM 67.6 °F - 55.4 °F 65% 30.01 in 10.0 mi North 12.7 mph 18.4 mph N/A   Scattered Clouds
10:55 PM 67.3 °F - 55.2 °F 65% 30.01 in 10.0 mi North 9.2 mph 19.6 mph N/A   Clear
11:15 PM 66.9 °F - 54.7 °F 65% 30.01 in 10.0 mi NNW 12.7 mph 18.4 mph N/A   Clear
11:35 PM 66.2 °F - 53.8 °F 64% 30.01 in 10.0 mi North 13.8 mph 17.3 mph N/A   Clear
11:55 PM 66.0 °F - 53.8 °F 65% 30.02 in 10.0 mi North 11.5 mph 18.4 mph N/A   Scattered Clouds